TimePST,TemperatureF,Dew PointF,Humidity,Sea Level PressureIn,VisibilityMPH,Wind Direction,Wind SpeedMPH,Gust SpeedMPH,PrecipitationIn,Events,Conditions,WindDirDegrees,DateUTC
12:53 AM,23.0,19.0,85,30.35,10.0,Calm,Calm,-,N/A,,Clear,0,2012-12-09 08:53:00
1:53 AM,21.0,16.0,81,30.38,9.0,Calm,Calm,-,N/A,,Clear,0,2012-12-09 09:53:00
2:53 AM,21.9,18.0,85,30.39,10.0,Calm,Calm,-,N/A,,Clear,0,2012-12-09 10:53:00
3:53 AM,19.9,16.0,85,30.41,9.0,Calm,Calm,-,N/A,,Clear,0,2012-12-09 11:53:00
4:53 AM,19.9,16.0,85,30.43,9.0,Calm,Calm,-,N/A,,Clear,0,2012-12-09 12:53:00
5:53 AM,21.0,16.0,81,30.44,10.0,Calm,Calm,-,N/A,,Clear,0,2012-12-09 13:53:00
6:53 AM,19.9,16.0,85,30.45,10.0,Calm,Calm,-,N/A,,Partly Cloudy,0,2012-12-09 14:53:00
7:53 AM,21.0,17.1,85,30.46,10.0,Calm,Calm,-,N/A,,Mostly Cloudy,0,2012-12-09 15:53:00
8:53 AM,21.9,18.0,85,30.45,8.0,Calm,Calm,-,N/A,,Scattered Clouds,0,2012-12-09 16:53:00
9:53 AM,25.0,19.0,78,30.45,10.0,Calm,Calm,-,N/A,,Mostly Cloudy,0,2012-12-09 17:53:00
10:00 AM,24.8,19.4,80,30.39,10.0,East,3.5,-,N/A,,Overcast,80,2012-12-09 18:00:00
10:53 AM,26.1,19.9,78,30.45,10.0,Calm,Calm,-,N/A,,Overcast,0,2012-12-09 18:53:00
11:13 AM,26.6,19.4,74,30.37,1.8,Calm,Calm,-,0.00,Snow,Light Snow,0,2012-12-09 19:13:00
11:53 AM,27.0,21.9,81,30.41,1.8,ENE,3.5,-,0.00,Snow,Light Snow,60,2012-12-09 19:53:00
12:02 PM,26.6,21.2,80,30.34,2.0,NE,3.5,-,0.00,Snow,Light Snow,50,2012-12-09 20:02:00
12:13 PM,28.4,23.0,80,30.33,5.0,ENE,3.5,-,0.00,Snow,Light Snow,70,2012-12-09 20:13:00
12:51 PM,28.4,24.8,86,30.32,3.0,Calm,Calm,-,0.00,Snow,Light Snow,0,2012-12-09 20:51:00
12:53 PM,28.9,24.1,82,30.39,3.0,Variable,3.5,-,0.00,Snow,Light Snow,0,2012-12-09 20:53:00
1:53 PM,30.0,24.1,79,30.37,3.0,Calm,Calm,-,0.00,,Overcast,0,2012-12-09 21:53:00
2:53 PM,30.0,25.0,82,30.36,9.0,Calm,Calm,-,N/A,,Overcast,0,2012-12-09 22:53:00
3:53 PM,30.0,25.0,82,30.34,7.0,NE,3.5,-,0.00,Snow,Light Snow,50,2012-12-09 23:53:00
4:53 PM,32.0,26.1,79,30.31,10.0,SW,4.6,-,0.00,,Overcast,230,2012-12-10 00:53:00
5:53 PM,32.0,26.1,79,30.30,10.0,SSW,4.6,-,N/A,,Overcast,210,2012-12-10 01:53:00
6:53 PM,32.0,27.0,82,30.30,5.0,Calm,Calm,-,0.00,Snow,Light Snow,0,2012-12-10 02:53:00
7:44 PM,30.2,26.6,86,30.20,2.0,ENE,4.6,-,0.00,Snow,Light Snow,60,2012-12-10 03:44:00
7:53 PM,30.9,26.1,82,30.27,4.0,ENE,4.6,-,0.00,Snow,Light Snow,60,2012-12-10 03:53:00
8:06 PM,30.2,26.6,86,30.20,2.5,ENE,3.5,-,0.00,Snow,Light Snow,70,2012-12-10 04:06:00
8:17 PM,30.2,26.6,86,30.19,3.0,East,4.6,-,0.00,Snow,Light Snow,80,2012-12-10 04:17:00
8:24 PM,30.2,26.6,86,30.19,4.0,East,3.5,-,0.00,,Overcast,90,2012-12-10 04:24:00
8:35 PM,30.2,26.6,86,30.19,1.8,ESE,3.5,-,0.00,Snow,Light Snow,120,2012-12-10 04:35:00
8:53 PM,30.9,27.0,85,30.25,3.0,Variable,3.5,-,0.00,Snow,Light Snow,0,2012-12-10 04:53:00
9:53 PM,32.0,28.0,85,30.26,3.0,Calm,Calm,-,0.00,,Overcast,0,2012-12-10 05:53:00
10:07 PM,30.2,28.4,93,30.20,2.5,Calm,Calm,-,N/A,,Overcast,0,2012-12-10 06:07:00
10:19 PM,30.2,28.4,93,30.19,2.0,Calm,Calm,-,N/A,,Overcast,0,2012-12-10 06:19:00
10:31 PM,30.2,28.4,93,30.19,2.0,Calm,Calm,-,N/A,,Overcast,0,2012-12-10 06:31:00
10:53 PM,30.9,28.0,89,30.26,2.5,ENE,3.5,-,N/A,,Overcast,70,2012-12-10 06:53:00
11:53 PM,30.9,28.0,89,30.24,3.0,Calm,Calm,-,0.00,,Overcast,0,2012-12-10 07:53:00